Regional Weather Roundup
Issued by NWS Cleveland, OH

Home | Current Version | Previous Version | Graphics & Text | Print | Product List | Glossary On
Versions: 1 2 3 4 5 6 7 8 9 10 11 12 13 14 15 16 17 18 19 20 21 22 23 24 25 26 27 28 29 30 31 32 33 34 35 36 37 38 39 40 41 42 43 44 45 46 47 48 49 50
000
ASUS41 KCLE 210510
RWRCLE
OHIO REGIONAL WEATHER ROUNDUP
NATIONAL WEATHER SERVICE WILMINGTON, OH
1200 AM EST SUN JAN 21 2018

NOTE: "FAIR" INDICATES FEW OR NO CLOUDS BELOW 12,000 FEET WITH NO
SIGNIFICANT WEATHER AND/OR OBSTRUCTIONS TO VISIBILITY.

OHZ001>008-015>018-024>027-034-035-043-044-210600-
   NORTHWEST OHIO

CITY           SKY/WX    TMP DP  RH WIND       PRES   REMARKS
DEFIANCE       CLOUDY    37  34  89 SW5       30.06S
FINDLAY        CLOUDY    37  32  82 S6        30.06F
TOLEDO EXPRESS CLOUDY    38  37  97 SW6       30.05F
TOLEDO EXEC    CLOUDY    37  33  85 SW6       30.07S
LIMA           CLOUDY    39  32  76 SW8       30.06F
$$

OHZ009>014-019>023-028>033-038-089-210600-
   NORTHEAST OHIO

CITY           SKY/WX    TMP DP  RH WIND       PRES   REMARKS
CLE-HOPKINS    CLOUDY    40  33  76 S6        30.10F
CLE-LAKEFRONT  CLOUDY    40  32  73 SW9       30.08S
CUY CO. ARPT   NOT AVBL
LORAIN-ELYRIA  CLOUDY    37  30  75 SW6       30.08F
ASHTABULA      CLOUDY    37  29  72 SW6       30.08R
AKRON-CANTON   CLOUDY    38  30  73 SW8       30.09S
WOOSTER        CLOUDY    39  32  76 SW5       30.09S
MANSFIELD      CLOUDY    42  33  70 SW9       30.07S
YOUNGSTOWN     CLOUDY    39  30  70 SW8       30.09R
$$

OHZ042-051>053-060>062-070>072-077>081-210600-
  SOUTHWEST OHIO

CITY           SKY/WX    TMP DP  RH WIND       PRES   REMARKS
CINC-COVINGTON CLOUDY    45  44  97 S5        30.09S
CINC-LUNKEN    CLOUDY    40  39  97 CALM      30.12F
HAMILTON       CLOUDY    42  42 100 CALM      30.11F FOG
DAYTON         DRIZZLE   39  39 100 S3        30.10F FOG
WRIGHT-PAT AFB CLOUDY    41  39  93 CALM      30.09F FOG
DAYTON GENERAL CLOUDY    42  41  96 S7        30.08F FOG
WILMINGTON     FOG       39  39 100 S5        30.10F VSB 3/4
$$

OHZ036-037-039>041-045>050-054>059-063>069-073>076-082>088-210600-
  CENTRAL AND SOUTHEAST OHIO

CITY           SKY/WX    TMP DP  RH WIND       PRES   REMARKS
COLUMBUS       CLOUDY    42  33  70 S3        30.12S
OSU AIRPORT    CLOUDY    40  37  89 SW7       30.11S
BOLTON FIELD   LGT RAIN  39  34  82 S3        30.12S
RICKENBACK AFB CLOUDY    38  35  87 S3        30.12S
NEWARK         CLOUDY    40  33  76 CALM      30.11F
MARION         CLOUDY    40  33  76 SW12      30.09S
LANCASTER      CLOUDY    38  33  82 CALM      30.13S
ZANESVILLE     CLOUDY    42  32  67 S6        30.13R
NEW PHILLY     CLOUDY    44  31  60 CALM      30.12R
$$




USA.gov is the U.S. government's official web portal to all federal, state and local government web resources and services.